Temp
65 65 65 65 65 65 64 64 64 63 64 64 63 63 62 62 62 62 62 62 63 64 64 64 64 64 61 55 58 66 72 71 66 65 62 61 58 56 52 52 53 51 53 55 55 54 53
65 64 64 64 64 64 64 64 63 63 63 64 63 62 62 61 62 61 62 62 63 64 63 64 64 63 57 51 63 64 64 65 64 63 59 60 58 58 54 53 52 53 52 53 54 54 53
63 63 63 63 63 64 64 63 62 62 63 63 63 62 61 61 61 61 62 62 63 63 63 64 64 63 56 58 64 64 65 62 62 63 59 59 60 57 56 51 54 52 49 51 50 52 52
63 62 63 63 63 63 63 62 62 62 62 62 62 61 61 61 61 61 61 62 62 62 62 63 64 58 55 64 63 64 63 62 63 63 62 61 60 57 54 54 52 48 48 46 50 50 51
62 62 62 62 63 63 63 62 62 62 62 62 61 61 61 60 60 60 60 61 61 62 62 63 57 55 54 66 61 62 62 61 61 61 61 65 59 52 53 48 45 45 43 43 48 50 50
61 61 61 62 62 63 62 61 61 61 61 60 60 60 60 60 60 60 61 61 63 62 62 64 63 53 57 57 60 61 60 62 58 58 57 55 50 47 45 45 41 42 42 42 43 48 46
61 61 62 62 62 62 61 60 60 60 59 59 59 59 59 59 59 60 59 58 57 54 54 55 54 54 56 60 61 58 61 59 57 54 48 49 46 43 47 46 46 44 42 43 44 48 45
61 62 62 62 62 61 60 60 60 59 59 58 58 58 59 59 59 61 56 53 49 51 50 55 56 57 59 59 54 57 61 54 52 48 48 46 43 47 48 46 45 43 41 41 44 45 44
62 62 62 62 61 60 60 59 59 59 58 58 58 58 58 58 59 57 53 51 54 52 46 52 55 55 56 59 54 55 58 53 49 46 45 44 46 48 48 44 43 42 41 40 43 43 43
62 62 62 62 59 59 59 59 59 59 58 58 58 58 58 57 58 53 51 53 54 53 42 47 50 54 56 56 50 57 56 53 48 46 45 44 46 47 44 44 45 40 43 43 41 40 36
62 62 61 60 59 59 58 58 58 58 58 57 57 58 58 58 53 53 53 54 52 52 31 50 50 58 54 51 51 51 55 52 47 46 46 45 44 42 42 44 46 43 44 41 40 38 34
62 60 59 59 59 58 58 58 57 57 57 56 57 57 57 55 52 51 53 51 52 43 31 45 49 48 47 48 49 50 50 53 50 45 44 44 46 46 46 45 44 44 41 38 35 35 29
59 59 58 58 58 57 57 57 57 57 56 56 56 57 54 55 52 52 52 51 41 34 47 44 45 47 45 46 47 47 45 43 43 39 37 40 42 43 46 42 42 42 38 32 31 28 30
58 58 57 57 57 56 56 56 56 56 56 55 56 56 55 55 52 52 51 47 33 41 42 47 45 44 44 46 45 44 41 40 42 40 36 36 35 41 44 44 40 37 38 33 28 27 31
57 57 56 56 56 56 56 56 56 55 55 55 55 50 50 53 53 51 48 35 38 40 45 43 44 38 39 42 42 40 39 39 43 43 41 34 36 40 41 42 43 38 35 39 35 29 27
56 56 56 56 55 55 55 55 55 55 54 54 49 47 49 53 52 50 43 39 41 45 46 44 39 42 37 39 38 37 39 42 43 44 42 40 35 39 40 42 40 39 41 34 32 28 24
56 56 55 55 54 54 54 54 54 54 54 54 46 45 52 52 51 46 37 37 42 47 46 44 39 38 39 38 38 36 40 44 45 41 41 40 38 36 38 37 37 35 34 34 35 32 29
55 55 54 54 53 53 53 53 53 54 54 49 49 40 51 51 43 35 36 40 47 45 44 45 41 42 40 40 37 36 38 47 47 44 41 42 36 33 35 37 39 38 37 38 34 31 29
54 54 54 53 53 53 53 53 53 53 53 45 42 46 50 50 37 36 39 42 43 44 44 42 40 43 40 38 36 38 39 46 46 45 41 41 34 29 33 33 35 35 35 37 38 33 35
53 53 53 52 52 52 52 52 52 52 53 44 43 39 42 43 40 37 39 41 42 47 46 46 45 45 42 40 40 39 38 45 44 44 49 47 37 35 35 36 35 31 34 36 40 33 34
53 53 53 52 52 52 52 52 52 52 52 48 44 42 40 38 38 40 40 41 39 40 45 46 43 37 34 34 37 37 40 40 44 48 45 44 34 35 37 40 40 40 40 41 36 39 34
53 53 53 52 52 51 51 51 51 51 51 41 35 37 35 34 37 37 40 36 35 33 35 38 33 33 35 33 34 33 35 36 38 44 44 41 34 37 34 38 40 37 39 40 40 41 41
52 52 52 52 52 51 51 51 51 51 47 34 35 36 36 32 31 31 32 33 32 37 37 39 37 34 34 37 38 41 41 40 39 38 37 37 34 33 31 38 38 31 35 38 38 41 40
51 51 51 52 51 50 50 50 50 50 48 37 36 37 33 27 29 29 30 31 31 32 29 36 39 36 39 43 43 43 41 41 40 42 45 38 36 33 31 35 25 30 27 30 30 23 21
51 51 51 51 51 51 50 50 50 50 50 41 37 37 33 26 30 29 28 28 30 31 31 33 37 39 40 36 30 28 33 37 37 40 39 40 38 33 29 30 34 31 20 18 17 18 17
51 51 51 51 51 50 50 50 50 50 50 43 41 42 36 28 25 31 27 28 28 22 25 30 37 38 35 30 29 10 11 25 24 30 36 37 36 29 28 25 22 12 14 17 16 15 16
52 51 51 51 51 51 50 50 50 50 50 43 37 40 37 29 30 30 24 27 30 26 25 27 29 29 33 28 20 11 13 27 16 18 21 24 24 21 23 21 9 10 12 17 18 8 15
51 50 51 51 50 50 50 50 49 49 49 45 40 40 37 30 31 33 33 27 28 28 24 28 27 29 27 20 19 18 12 18 16 24 23 20 10 13 16 17 12 12 13 7 10 14 14
50 50 50 50 50 51 50 50 50 50 50 48 38 43 44 34 32 36 36 38 36 35 31 31 27 27 30 23 18 13 10 8 10 6 18 11 6 9 7 6 12 13 11 13 14 12 12
MSLP
1019.99 1019.66 1019.35 1018.98 1018.56 1018.07 1017.63 1017.24 1016.83 1016.40 1016.01 1015.67 1015.32 1015.01 1014.78 1014.54 1014.35 1014.06 1013.83 1013.74 1013.62 1013.49 1013.45 1013.46 1013.38 1013.36 1013.28 1013.19 1012.23 1011.50 1011.50 1011.56 1011.71 1011.92 1012.18 1012.46 1012.86 1013.21 1013.54 1013.74 1013.98 1014.13 1013.72 1013.63 1013.45 1013.73 1013.86
1020.32 1020.01 1019.64 1019.28 1018.85 1018.39 1017.94 1017.45 1017.01 1016.62 1016.21 1015.77 1015.31 1014.86 1014.58 1014.32 1014.06 1013.81 1013.69 1013.56 1013.34 1013.30 1013.25 1013.23 1013.26 1013.34 1013.41 1013.01 1011.47 1011.42 1011.46 1011.62 1011.81 1011.97 1012.29 1012.42 1012.61 1012.86 1013.30 1013.62 1013.89 1013.65 1013.64 1013.50 1013.48 1013.68 1013.80
1020.73 1020.43 1019.96 1019.63 1019.23 1018.77 1018.30 1017.75 1017.27 1016.81 1016.36 1015.91 1015.40 1014.92 1014.56 1014.27 1013.93 1013.66 1013.43 1013.15 1013.04 1013.13 1013.15 1013.18 1013.26 1013.33 1013.24 1011.96 1011.23 1011.34 1011.41 1011.65 1011.78 1011.91 1012.25 1012.46 1012.55 1012.95 1013.30 1013.64 1013.56 1013.64 1013.80 1013.47 1013.41 1013.55 1013.75
1021.03 1020.76 1020.34 1020.04 1019.59 1019.11 1018.59 1018.03 1017.48 1016.91 1016.46 1016.02 1015.47 1015.00 1014.63 1014.25 1013.81 1013.44 1013.00 1012.78 1012.85 1012.89 1012.94 1013.04 1013.17 1013.31 1012.57 1011.24 1011.28 1011.37 1011.49 1011.72 1011.83 1011.92 1012.15 1012.46 1012.55 1013.02 1013.42 1013.70 1013.76 1013.90 1013.96 1013.71 1013.30 1013.51 1013.60
1021.36 1021.02 1020.69 1020.34 1019.85 1019.35 1018.84 1018.30 1017.69 1017.10 1016.69 1016.27 1015.69 1015.15 1014.58 1014.04 1013.58 1013.12 1012.81 1012.67 1012.64 1012.69 1012.84 1012.99 1013.22 1013.18 1012.17 1011.26 1011.31 1011.27 1011.34 1011.62 1011.89 1012.15 1012.36 1012.56 1012.83 1013.55 1013.78 1014.04 1014.32 1014.30 1014.10 1013.82 1013.34 1013.36 1013.61
1021.65 1021.30 1020.99 1020.58 1020.10 1019.55 1019.05 1018.56 1018.04 1017.43 1016.90 1016.35 1015.70 1015.09 1014.53 1013.95 1013.31 1012.82 1012.48 1012.39 1012.38 1012.54 1012.85 1013.03 1013.14 1013.34 1011.82 1011.12 1011.09 1011.24 1011.40 1011.54 1011.91 1012.31 1012.70 1012.98 1013.68 1014.06 1014.43 1014.47 1014.18 1013.94 1013.96 1013.75 1013.72 1013.56 1013.71
1021.95 1021.55 1021.15 1020.76 1020.31 1019.81 1019.34 1018.82 1018.27 1017.70 1017.23 1016.63 1015.81 1015.09 1014.40 1013.81 1013.21 1012.61 1012.36 1012.59 1013.18 1013.26 1013.00 1012.23 1011.94 1011.64 1011.15 1011.12 1011.09 1011.37 1011.44 1011.67 1011.96 1012.40 1013.00 1013.34 1014.09 1013.79 1013.32 1013.42 1013.30 1013.44 1013.68 1013.82 1013.46 1013.39 1013.72
1022.09 1021.78 1021.40 1020.96 1020.46 1020.06 1019.61 1019.08 1018.47 1017.91 1017.44 1016.82 1016.04 1015.19 1014.43 1013.77 1013.12 1012.66 1012.72 1013.60 1014.06 1014.40 1013.22 1011.71 1011.66 1011.42 1011.05 1010.96 1011.28 1011.41 1011.49 1011.92 1012.17 1012.62 1013.09 1013.83 1013.50 1012.88 1012.98 1013.22 1013.44 1013.66 1013.88 1013.84 1013.49 1013.65 1013.88
1022.27 1022.00 1021.63 1021.17 1020.76 1020.31 1019.82 1019.28 1018.70 1018.18 1017.54 1016.90 1016.09 1015.17 1014.35 1013.58 1012.98 1013.01 1013.69 1014.24 1014.23 1014.32 1013.96 1011.76 1011.29 1011.02 1010.93 1011.12 1011.14 1011.22 1011.60 1011.66 1012.08 1012.67 1013.08 1013.42 1012.78 1012.78 1013.00 1013.41 1013.68 1013.72 1013.94 1013.87 1014.02 1013.94 1014.02
1022.41 1022.12 1021.80 1021.47 1021.17 1020.59 1020.06 1019.52 1018.99 1018.44 1017.82 1017.01 1016.07 1015.22 1014.37 1013.48 1013.35 1013.91 1014.19 1014.37 1014.23 1014.26 1013.97 1011.81 1011.07 1010.68 1010.82 1010.94 1011.30 1011.21 1011.34 1011.62 1012.08 1012.39 1013.05 1013.08 1012.67 1012.77 1013.06 1013.33 1013.56 1013.82 1013.34 1013.82 1014.26 1014.74 1015.03
1022.53 1022.27 1021.96 1021.76 1021.46 1020.92 1020.38 1019.81 1019.24 1018.58 1017.78 1016.94 1016.02 1015.27 1014.53 1013.87 1014.14 1014.21 1014.58 1014.26 1014.22 1014.40 1013.80 1011.38 1010.87 1010.68 1010.78 1011.23 1011.35 1011.34 1011.37 1011.49 1011.84 1012.30 1012.91 1012.10 1012.42 1012.80 1013.02 1012.77 1013.14 1013.37 1013.55 1014.21 1014.70 1015.17 1015.49
1022.50 1022.46 1022.25 1022.02 1021.73 1021.22 1020.64 1020.10 1019.48 1018.74 1017.93 1017.01 1016.02 1015.32 1014.73 1014.26 1014.38 1014.47 1014.32 1014.22 1014.39 1014.56 1012.58 1010.93 1010.65 1010.70 1011.03 1011.14 1011.26 1011.49 1011.59 1011.70 1012.01 1012.33 1012.54 1012.32 1012.24 1012.33 1012.04 1012.48 1012.90 1013.44 1014.10 1014.89 1015.56 1015.74 1015.56
1022.96 1022.85 1022.64 1022.32 1022.05 1021.56 1020.99 1020.38 1019.72 1018.93 1017.99 1016.91 1015.84 1015.08 1014.68 1014.59 1014.60 1014.36 1014.36 1014.65 1015.01 1013.74 1011.49 1011.00 1010.70 1010.84 1011.04 1011.16 1011.33 1011.54 1011.90 1012.15 1012.26 1012.69 1012.60 1012.34 1012.11 1011.82 1011.99 1012.79 1013.33 1013.58 1014.28 1015.24 1015.61 1015.85 1014.59
1023.45 1023.24 1023.05 1022.66 1022.33 1021.85 1021.28 1020.59 1019.85 1019.04 1018.10 1016.94 1015.66 1014.78 1014.53 1014.56 1014.52 1014.37 1014.59 1014.89 1014.76 1012.74 1011.57 1010.78 1010.74 1010.98 1011.16 1011.01 1011.24 1011.66 1012.00 1012.17 1012.00 1012.32 1012.85 1012.59 1012.00 1011.67 1011.68 1011.91 1012.42 1013.44 1013.80 1014.36 1014.30 1014.63 1014.15
1023.97 1023.71 1023.43 1023.04 1022.69 1022.30 1021.66 1020.90 1020.13 1019.30 1018.25 1017.02 1015.58 1014.91 1014.81 1014.58 1014.44 1014.54 1014.90 1014.95 1013.44 1012.53 1011.40 1011.08 1011.05 1011.16 1011.31 1011.28 1011.62 1011.90 1012.18 1011.89 1011.38 1011.46 1011.96 1012.28 1011.85 1011.44 1011.60 1011.77 1012.24 1013.37 1013.55 1013.08 1013.38 1013.99 1013.79
1024.44 1024.04 1023.74 1023.39 1023.10 1022.65 1022.03 1021.31 1020.48 1019.51 1018.35 1017.08 1016.61 1015.87 1015.00 1014.48 1014.48 1014.71 1015.16 1014.46 1013.24 1012.05 1011.48 1011.35 1011.63 1011.40 1011.69 1011.73 1012.10 1012.29 1011.80 1011.00 1010.86 1010.79 1010.83 1011.28 1011.57 1011.32 1011.77 1011.96 1012.46 1012.52 1012.64 1013.17 1013.53 1013.49 1012.86
1024.92 1024.43 1024.10 1023.80 1023.48 1023.03 1022.40 1021.72 1020.86 1019.91 1018.70 1017.24 1016.90 1016.31 1014.75 1014.46 1014.53 1015.11 1015.41 1014.65 1013.25 1012.13 1011.96 1011.90 1011.74 1011.86 1011.97 1012.20 1012.33 1012.38 1011.46 1010.68 1010.32 1010.80 1011.03 1011.34 1011.90 1011.62 1011.83 1011.69 1011.56 1012.72 1012.55 1012.74 1012.79 1012.39 1011.79
1025.48 1025.07 1024.59 1024.29 1023.97 1023.51 1022.88 1022.20 1021.32 1020.45 1019.29 1018.32 1017.99 1017.07 1014.73 1014.39 1015.24 1015.65 1015.19 1014.34 1013.73 1012.70 1012.34 1012.16 1012.03 1012.15 1012.32 1012.27 1012.21 1012.08 1011.48 1010.45 1009.78 1010.19 1010.95 1010.82 1011.29 1011.22 1010.57 1010.26 1010.33 1010.39 1010.60 1011.02 1011.42 1011.03 1010.41
1025.80 1025.55 1025.12 1024.70 1024.29 1023.84 1023.32 1022.59 1021.72 1020.85 1020.31 1020.11 1018.87 1017.17 1014.91 1014.85 1015.43 1015.73 1015.14 1014.66 1014.07 1013.36 1012.82 1012.46 1012.41 1012.46 1012.61 1012.78 1012.68 1011.36 1010.62 1009.78 1009.76 1009.92 1009.78 1010.30 1010.73 1011.08 1009.98 1010.72 1010.54 1010.21 1010.10 1009.96 1009.79 1009.84 1008.32
1026.46 1026.01 1025.48 1025.05 1024.68 1024.25 1023.64 1022.82 1021.98 1021.07 1020.17 1019.92 1019.28 1017.99 1016.53 1016.02 1016.30 1016.22 1015.98 1015.29 1014.54 1013.63 1013.38 1013.05 1012.95 1012.97 1013.02 1012.80 1012.71 1011.68 1010.99 1009.99 1009.71 1009.68 1009.33 1009.65 1009.77 1009.48 1008.85 1008.58 1008.99 1009.84 1009.56 1009.32 1009.31 1008.74 1007.96
1026.56 1026.18 1025.82 1025.46 1025.01 1024.51 1023.99 1023.33 1022.46 1021.39 1020.19 1019.92 1019.77 1019.13 1019.64 1018.32 1017.59 1017.63 1017.28 1016.58 1015.96 1015.24 1014.81 1014.16 1013.52 1014.91 1015.41 1014.20 1013.22 1012.50 1011.56 1010.87 1010.00 1009.84 1010.05 1010.17 1009.85 1009.47 1008.33 1008.03 1008.85 1008.60 1008.56 1008.26 1008.35 1007.36 1007.54
1026.86 1026.36 1025.87 1025.56 1025.26 1024.82 1024.38 1023.85 1023.17 1022.35 1021.08 1021.05 1021.94 1021.75 1021.12 1020.33 1019.33 1018.57 1018.22 1017.71 1017.58 1017.61 1017.67 1016.47 1016.50 1016.73 1016.51 1015.86 1015.49 1014.15 1013.81 1013.14 1011.48 1010.23 1010.20 1009.77 1008.68 1008.93 1007.92 1007.29 1008.12 1007.92 1007.43 1007.34 1007.78 1007.18 1007.44
1027.20 1026.77 1026.30 1025.85 1025.51 1025.23 1024.82 1024.43 1023.95 1023.37 1022.87 1023.19 1023.39 1023.24 1022.64 1021.48 1020.83 1020.20 1019.66 1019.49 1019.14 1018.81 1018.28 1018.05 1017.54 1017.06 1016.32 1015.61 1015.41 1014.39 1013.75 1012.97 1012.33 1011.25 1010.37 1009.73 1008.75 1008.46 1006.77 1006.91 1007.79 1007.69 1007.03 1007.65 1007.48 1007.59 1007.90
1027.41 1027.00 1026.58 1026.13 1025.74 1025.54 1025.24 1024.83 1024.46 1024.08 1023.89 1024.24 1024.19 1023.80 1023.20 1022.32 1021.87 1021.50 1020.99 1020.83 1020.19 1020.14 1019.65 1018.44 1017.66 1017.08 1016.22 1015.81 1014.61 1012.92 1012.20 1011.25 1010.80 1009.96 1009.29 1008.81 1008.72 1008.52 1006.53 1007.93 1007.18 1007.75 1009.03 1009.47 1010.23 1011.89 1012.79
1027.57 1027.16 1026.69 1026.30 1026.01 1025.49 1025.23 1024.94 1024.69 1024.46 1024.19 1024.18 1024.27 1024.08 1023.71 1023.13 1022.70 1022.15 1021.88 1021.49 1020.79 1020.13 1019.66 1018.93 1018.02 1017.65 1016.74 1016.04 1014.79 1013.08 1011.58 1010.65 1009.77 1009.79 1009.53 1009.66 1008.57 1007.55 1007.62 1007.92 1008.39 1010.26 1014.01 1015.88 1015.90 1015.74 1016.59
1027.36 1026.95 1026.56 1026.16 1025.87 1025.52 1025.10 1024.89 1024.67 1024.40 1024.27 1024.18 1024.02 1024.07 1024.08 1023.87 1023.09 1023.02 1022.44 1022.01 1021.51 1020.94 1020.11 1019.26 1018.61 1017.85 1017.45 1016.85 1016.34 1015.77 1014.44 1013.46 1012.03 1010.79 1010.07 1010.62 1010.88 1010.89 1010.42 1011.03 1012.60 1017.67 1018.30 1018.67 1018.53 1019.59 1020.29
1027.11 1026.61 1026.23 1025.82 1025.42 1025.16 1024.90 1024.59 1024.48 1024.21 1024.00 1024.07 1023.98 1023.91 1024.05 1023.99 1023.11 1022.99 1022.86 1022.53 1022.19 1021.79 1021.14 1020.24 1019.80 1018.74 1017.94 1017.98 1017.79 1017.44 1016.75 1016.20 1015.76 1015.33 1014.88 1014.10 1013.86 1014.22 1014.54 1015.78 1019.18 1021.68 1020.85 1019.45 1020.63 1024.19 1023.49
1027.29 1026.79 1026.14 1025.60 1025.07 1024.82 1024.56 1024.26 1024.16 1024.09 1023.88 1023.92 1024.08 1023.88 1023.93 1023.47 1022.64 1022.20 1022.09 1021.98 1021.81 1021.84 1021.71 1021.01 1020.41 1019.54 1018.84 1018.72 1019.11 1019.26 1018.88 1018.60 1018.39 1017.87 1017.64 1018.79 1019.63 1019.04 1019.02 1019.91 1022.55 1024.03 1022.68 1024.26 1026.61 1025.71 1025.72
1027.24 1026.64 1026.04 1025.51 1024.96 1024.32 1023.94 1023.76 1023.55 1023.44 1023.31 1023.32 1023.69 1023.39 1023.22 1023.29 1022.32 1021.18 1020.96 1020.75 1020.75 1020.66 1021.61 1021.19 1020.63 1020.41 1019.67 1019.59 1019.77 1020.26 1020.38 1020.28 1020.32 1021.15 1021.33 1023.05 1025.15 1024.59 1025.18 1026.47 1027.56 1027.93 1028.28 1028.54 1028.06 1027.14 1027.19
Wind_Speed
19 19 20 21 21 21 22 21 21 20 19 16 14 12 10 9 9 8 7 6 6 5 5 6 6 7 2 1 8 2 1 2 4 4 3 4 4 4 3 4 3 4 3 3 3 4 4
19 19 20 21 21 21 22 23 21 21 21 20 17 16 13 11 10 9 8 8 6 6 6 5 5 3 2 3 2 2 1 3 2 3 2 4 5 6 3 3 5 4 3 4 4 3 3
19 19 20 21 21 21 22 23 21 21 21 21 20 18 16 13 11 10 9 7 6 6 6 4 3 1 2 12 3 2 2 2 2 3 3 2 3 3 4 2 0 1 4 4 5 4 4
19 19 20 20 21 20 20 21 21 21 22 22 21 19 17 15 13 10 8 7 7 6 6 4 1 1 7 1 2 3 2 2 3 2 3 4 3 4 1 2 5 2 2 3 2 5 2
18 18 19 20 20 21 21 20 22 21 22 22 22 21 20 17 13 10 8 7 7 5 4 2 1 2 9 2 2 3 2 4 3 3 3 3 4 3 3 3 4 4 3 4 7 6 2
17 18 19 19 20 21 22 22 23 23 24 24 22 21 20 18 13 9 7 2 4 3 2 2 1 3 3 4 3 3 1 4 3 4 2 3 5 2 3 3 5 5 4 4 5 3 3
17 18 19 19 20 21 23 23 24 24 25 25 25 23 22 19 15 9 3 3 5 3 0 10 6 4 1 2 2 1 3 4 3 3 4 1 2 8 10 8 2 2 3 5 4 3 3
17 19 19 19 21 22 23 24 25 25 25 26 26 24 23 20 16 5 3 5 2 2 8 5 4 5 3 2 1 4 4 5 4 5 4 2 9 5 3 4 4 3 2 6 5 1 4
17 18 19 19 21 22 23 24 25 25 27 27 27 25 23 21 13 4 3 3 2 2 2 6 4 4 3 6 4 5 8 4 4 5 6 7 2 4 4 3 4 4 5 5 6 4 2
17 17 17 19 21 22 23 24 25 25 26 25 25 25 24 24 4 2 3 1 1 0 4 5 2 2 2 3 3 1 3 3 1 6 6 6 1 5 4 5 7 4 5 3 1 2 4
16 15 14 19 21 22 24 25 26 26 25 25 26 24 23 10 2 3 2 1 1 3 5 2 3 1 1 5 3 2 1 2 5 6 5 8 7 5 5 8 8 6 3 4 2 2 2
12 15 17 19 20 22 23 25 26 26 26 26 26 23 20 2 2 1 1 1 3 7 9 2 3 2 2 2 2 2 1 3 1 2 2 7 1 6 8 2 4 6 5 5 4 3 3
17 17 18 19 20 22 24 25 26 26 28 28 26 23 7 1 2 2 2 3 6 5 3 2 3 3 3 5 4 6 5 4 6 2 4 2 5 2 3 5 1 3 5 3 3 0 7
19 19 19 20 21 23 24 25 27 29 28 30 28 17 3 1 2 1 2 5 5 5 6 2 1 2 5 6 4 3 2 4 6 2 2 5 7 9 6 6 8 6 7 7 8 5 4
18 19 19 21 22 24 25 26 27 27 29 30 23 4 2 2 2 2 5 2 9 7 3 1 1 3 3 1 3 3 6 6 7 11 10 6 8 1 2 2 2 5 6 3 1 2 2
19 19 20 22 23 24 25 27 28 28 31 29 6 4 3 4 3 4 4 6 6 4 1 1 5 6 6 4 3 4 5 4 5 10 1 3 6 2 3 3 2 4 4 3 2 4 7
19 20 21 22 23 24 25 27 28 29 31 24 3 5 2 4 2 5 4 8 6 5 2 5 4 5 7 4 6 6 6 5 6 4 4 5 5 3 5 8 11 3 3 2 3 5 6
19 20 21 21 22 24 25 26 27 28 30 10 4 3 2 2 2 1 3 4 4 4 1 5 3 7 7 7 7 8 11 10 8 8 9 7 6 9 14 2 2 5 10 10 7 8 6
20 20 21 22 23 24 25 27 28 29 26 5 4 4 3 2 2 3 4 4 3 4 5 2 3 6 1 4 5 9 7 7 8 9 9 8 4 6 7 2 3 5 6 5 1 3 23
18 19 20 22 23 24 26 28 29 31 30 2 4 4 5 4 2 2 4 5 4 2 5 3 4 2 5 9 8 8 4 5 5 7 4 7 7 9 18 8 5 5 7 9 14 11 14
17 19 19 20 22 23 25 27 29 32 31 3 3 3 5 5 6 11 8 6 11 8 9 6 2 14 9 6 4 7 5 5 3 3 3 3 9 6 16 18 11 19 21 21 20 20 19
18 20 20 19 21 22 22 24 26 29 27 5 4 5 6 5 8 8 5 2 7 7 9 7 8 19 16 8 13 7 9 5 7 2 14 6 11 16 22 27 23 25 27 25 24 26 23
18 19 20 20 20 21 21 22 22 23 14 4 3 3 2 5 5 4 4 7 9 9 6 7 12 13 12 12 14 18 17 16 19 17 15 6 4 7 20 16 15 17 22 26 22 22 16
18 19 19 20 19 19 19 19 19 19 13 2 2 2 3 4 2 3 9 11 7 9 9 12 11 9 5 15 19 16 17 20 19 22 19 17 15 6 11 14 20 1 11 8 5 18 20
19 19 19 18 19 20 18 18 17 17 16 2 2 3 3 5 5 9 6 4 12 7 6 8 3 10 12 11 5 8 5 9 8 5 8 12 17 13 13 13 12 2 16 12 13 8 20
19 17 17 18 19 17 18 15 16 14 12 3 2 1 2 4 2 5 8 4 6 5 6 5 9 7 5 3 3 3 4 5 7 10 10 9 2 4 9 14 7 5 21 20 12 2 21
24 21 18 17 14 15 16 14 14 15 14 4 3 1 1 3 4 2 2 7 4 2 5 6 7 8 2 3 2 1 4 6 6 8 10 9 5 5 5 3 3 16 24 15 2 7 15
23 24 23 25 18 14 13 13 9 13 16 7 3 3 2 3 7 7 5 5 3 4 7 6 8 2 4 5 2 4 2 3 3 3 3 5 5 5 6 4 2 24 7 11 9 6 9
22 23 23 22 21 22 16 13 11 11 12 9 3 2 3 4 7 6 7 11 12 18 7 4 3 4 3 2 3 2 3 3 2 3 10 6 5 5 5 3 4 7 5 6 8 6 8
Wind_Direction
21 20 18 17 17 16 11 10 13 12 9 4 355 347 335 322 309 309 307 288 286 293 300 306 333 351 35 7 251 167 49 26 114 126 148 148 150 149 198 193 155 197 244 207 235 181 230
17 17 16 15 13 14 10 6 6 7 5 3 360 353 342 330 316 308 293 281 285 291 289 304 334 1 93 253 167 94 52 111 92 117 131 140 194 190 167 199 178 198 253 258 265 231 237
14 15 14 12 11 10 7 1 2 4 1 359 358 355 345 332 321 305 289 283 282 284 289 301 337 106 180 239 161 97 82 122 102 141 140 194 134 136 140 203 181 120 311 303 216 204 240
14 13 15 11 11 9 0 359 0 1 358 356 355 352 346 334 323 310 305 299 281 286 294 290 318 124 246 220 154 130 109 83 65 68 105 134 135 112 101 139 19 15 59 335 183 159 184
17 15 13 11 10 6 1 1 1 359 356 353 352 350 346 339 329 317 304 285 270 274 247 299 113 177 268 132 188 160 147 155 105 76 63 86 67 99 54 95 355 358 239 222 312 201 134
17 17 13 11 9 4 5 4 1 360 354 349 348 347 343 338 333 325 314 253 70 111 80 112 39 21 258 224 163 142 89 128 134 113 72 61 53 85 59 119 230 211 230 245 243 209 204
16 14 13 11 8 7 4 2 1 358 353 349 345 344 342 340 333 339 28 47 22 349 199 193 201 215 160 115 99 166 154 111 108 101 186 23 115 218 214 200 194 173 203 239 243 223 236
18 14 12 10 8 6 3 1 359 356 353 349 344 340 340 338 332 340 64 78 116 180 305 230 246 282 239 177 188 207 132 148 152 198 129 36 237 219 135 154 170 182 225 257 274 222 189
15 12 9 10 8 5 3 2 359 356 352 347 339 337 339 336 325 42 68 116 135 158 234 291 199 194 207 141 223 218 150 155 172 175 190 181 215 118 147 157 166 218 196 226 232 326 223
12 11 9 12 9 7 5 2 358 354 347 340 339 338 339 329 60 302 50 73 70 178 37 265 234 252 98 135 264 139 183 141 183 204 171 231 232 177 181 225 155 252 207 161 183 56 250
11 9 24 23 10 8 5 0 356 350 344 340 338 339 338 348 229 58 303 33 104 59 351 205 189 149 114 166 135 220 285 80 206 192 141 248 171 179 188 216 164 223 134 143 101 147 12
17 35 32 25 9 6 3 359 354 347 342 337 335 335 335 4 30 344 352 71 58 45 256 228 137 170 154 198 221 97 123 54 55 174 243 245 267 181 206 134 168 140 88 57 59 102 262
43 36 29 24 12 6 3 359 354 348 342 335 331 331 326 316 284 337 45 49 32 160 318 203 218 174 212 207 219 179 173 187 190 174 247 263 218 207 164 110 49 134 90 311 306 247 233
43 38 28 24 14 8 4 1 356 350 342 335 327 324 318 284 324 26 69 53 204 240 248 317 94 154 215 160 234 164 164 257 232 132 125 210 304 179 182 198 182 174 169 177 229 213 249
42 35 29 23 16 10 6 3 357 351 343 337 325 337 11 317 332 45 78 140 210 212 249 270 278 213 268 266 196 161 213 217 223 178 185 178 264 136 173 134 139 177 188 195 121 98 357
35 33 28 24 17 12 8 3 359 354 344 336 326 341 281 326 356 66 82 236 242 217 303 100 208 182 215 223 183 185 214 199 237 193 104 227 293 192 153 121 41 172 168 96 360 238 240
35 33 28 22 19 13 9 4 1 356 348 333 24 351 269 340 93 58 202 230 273 269 234 206 229 265 229 227 206 207 244 255 207 168 184 160 168 239 126 199 179 156 209 185 183 165 226
29 27 27 24 18 12 8 6 3 360 354 22 341 328 286 20 25 79 212 218 313 299 90 272 222 216 212 210 235 224 224 216 171 159 176 210 175 239 223 229 209 192 192 172 196 233 233
27 25 24 20 15 12 8 5 2 358 359 313 301 270 329 68 209 238 283 287 258 266 245 239 261 203 175 235 267 211 224 240 181 173 187 183 225 285 309 15 345 222 201 207 289 37 246
25 21 21 18 13 10 7 4 2 357 354 124 306 316 314 36 32 350 342 300 288 320 274 270 267 249 220 234 228 275 248 270 197 215 219 145 205 198 239 228 126 191 211 211 216 241 263
21 19 16 12 8 7 6 4 3 359 351 326 333 352 7 342 352 337 339 313 312 330 345 306 258 42 1 293 290 252 261 307 225 275 260 181 259 271 279 276 281 270 262 245 228 244 248
14 10 8 8 9 4 5 5 6 5 355 68 19 352 347 294 329 343 341 36 353 358 343 327 2 336 326 300 306 300 334 343 292 265 263 202 260 263 263 265 263 261 251 251 249 252 254
10 7 4 3 6 360 2 3 5 10 23 35 349 338 312 302 334 334 353 16 340 332 253 288 294 300 295 294 299 284 267 257 252 266 282 248 238 233 253 265 263 252 243 244 245 249 246
5 3 360 359 359 1 358 359 2 6 21 93 293 295 338 288 316 323 328 309 312 311 268 283 299 283 328 321 295 264 249 253 247 253 233 250 252 249 264 260 246 29 22 33 43 41 4
1 358 355 354 354 352 355 353 359 356 2 37 302 348 324 293 294 298 354 324 317 290 281 281 310 327 313 307 293 307 268 247 233 262 349 333 267 255 248 242 284 46 25 6 357 47 6
357 354 354 353 349 345 346 355 348 351 347 344 269 216 317 327 269 340 294 268 311 314 325 285 318 304 302 298 309 330 304 311 310 332 52 353 86 354 343 312 289 335 326 316 290 90 1
348 346 338 325 333 339 339 337 331 332 333 331 279 282 204 259 270 191 291 309 277 311 275 301 336 320 340 320 304 256 279 338 358 9 340 324 356 356 332 346 155 340 321 304 352 330 352
357 349 344 345 327 307 315 325 324 321 326 337 288 231 227 239 265 223 252 216 239 271 284 332 320 354 318 16 51 314 6 301 319 257 312 27 323 0 328 296 303 356 360 54 320 11 350
351 347 342 338 327 335 305 300 313 311 320 316 260 241 197 234 254 217 222 234 234 251 246 221 248 358 271 352 8 28 326 350 223 289 16 50 340 344 35 46 22 354 28 354 354 9 3